User: anonymous   Login
Location: Mentone
(34.5413°N, 85.5351°W)
Time: 21:48:56
(UTC-05:00)
Language:

ERBS - Orbit

View from above orbital plane
View from above orbital plane
View from above satellite
View from above satellite

Ground track
Ground track

The orbit data is extracted from the following two-line orbital elements,

1 15354U 84108B   17202.51847975 +.00002182 +00000-0 +56121-4 0  9999
2 15354 057.0088 350.5559 0013007 145.8166 214.3729 15.43835424803235
Epoch (UTC): 21 July 2017 12:26:36
Eccentricity: 0.0013007
inclination: 57.0088°
perigee height: 426 km
apogee height: 443 km
right ascension of ascending node: 350.5559°
argument of perigee: 145.8166°
revolutions per day: 15.43835424
mean anomaly at epoch: 214.3729°
orbit number at epoch: 80323

The dashed part of the orbit path shows where the satellite is in the earth's shadow,  

DLR